Time,TemperatureF,DewpointF,PressureIn,WindDirection,WindDirectionDegrees,WindSpeedMPH,WindSpeedGustMPH,Humidity,HourlyPrecipIn,Conditions,Clouds,dailyrainin,SoftwareType,DateUTC
2013-01-28 00:04:00,18.0,-6.0,-100.00,SW,224,2.0,4.0,33,0.00,,,-99.99,,2013-01-28 05:04:00,
2013-01-28 00:11:00,18.0,-6.0,-100.00,SSW,202,2.0,6.0,33,0.00,,,-99.99,,2013-01-28 05:11:00,
2013-01-28 00:21:00,18.0,-5.0,-100.00,SW,220,2.0,6.0,34,0.00,,,-99.99,,2013-01-28 05:21:00,
2013-01-28 00:32:00,19.0,-5.0,-100.00,WSW,253,2.0,8.0,34,0.00,,,-99.99,,2013-01-28 05:32:00,
2013-01-28 00:42:00,19.0,-6.0,-100.00,WSW,244,2.0,7.0,33,0.00,,,-99.99,,2013-01-28 05:42:00,
2013-01-28 00:52:00,19.0,-3.0,-100.00,West,270,1.0,4.0,37,0.00,,,-99.99,,2013-01-28 05:52:00,
2013-01-28 01:02:00,19.0,-5.0,-100.00,WNW,298,2.0,5.0,34,0.00,,,-99.99,,2013-01-28 06:02:00,
2013-01-28 01:11:00,19.0,-3.0,-100.00,WNW,299,4.0,6.0,36,0.00,,,-99.99,,2013-01-28 06:11:00,
2013-01-28 01:22:00,19.0,-4.0,-100.00,NW,313,4.0,6.0,34,0.00,,,-99.99,,2013-01-28 06:22:00,
2013-01-28 01:32:00,19.0,-5.0,-100.00,NW,309,4.0,6.0,34,0.00,,,-99.99,,2013-01-28 06:32:00,
2013-01-28 01:42:00,19.0,-5.0,-100.00,NW,309,4.0,6.0,34,0.00,,,-99.99,,2013-01-28 06:42:00,
2013-01-28 01:52:00,18.0,-3.0,-100.00,WSW,251,0.0,2.0,38,0.00,,,-99.99,,2013-01-28 06:52:00,
2013-01-28 02:02:00,17.0,-5.0,-100.00,WSW,251,0.0,2.0,37,0.00,,,-99.99,,2013-01-28 07:02:00,
2013-01-28 02:11:00,-999.0,-99.9,-100.00,WSW,247,0.0,2.0,-999,-99.99,,,-99.99,,2013-01-28 07:11:00,
2013-01-28 02:22:00,16.0,-2.0,-100.00,WSW,244,1.0,3.0,44,0.00,,,-99.99,,2013-01-28 07:22:00,
2013-01-28 02:32:00,16.0,-2.0,-100.00,WSW,239,1.0,3.0,45,0.00,,,-99.99,,2013-01-28 07:32:00,
2013-01-28 02:42:00,16.0,-3.0,-100.00,SW,223,2.0,4.0,41,0.00,,,-99.99,,2013-01-28 07:42:00,
2013-01-28 02:51:00,17.0,-3.0,-100.00,SW,216,2.0,6.0,39,0.00,,,-99.99,,2013-01-28 07:51:00,
2013-01-28 03:01:00,18.0,-6.0,-100.00,WSW,248,3.0,7.0,34,0.00,,,-99.99,,2013-01-28 08:01:00,
2013-01-28 03:11:00,18.0,-2.0,-100.00,WSW,253,3.0,6.0,40,0.00,,,-99.99,,2013-01-28 08:11:00,
2013-01-28 03:20:00,19.0,-3.0,-100.00,WNW,289,2.0,6.0,37,0.00,,,-99.99,,2013-01-28 08:20:00,
2013-01-28 03:21:00,18.0,-5.0,-100.00,WSW,248,2.0,4.0,36,0.00,,,-99.99,,2013-01-28 08:21:00,
2013-01-28 03:32:00,18.0,-3.0,-100.00,WNW,282,1.0,4.0,37,0.00,,,-99.99,,2013-01-28 08:32:00,
2013-01-28 03:42:00,19.0,-3.0,-100.00,WNW,289,2.0,6.0,37,0.00,,,-99.99,,2013-01-28 08:42:00,
2013-01-28 03:52:00,19.0,-3.0,-100.00,WNW,289,2.0,6.0,37,0.00,,,-99.99,,2013-01-28 08:52:00,
2013-01-28 04:02:00,19.0,-3.0,-100.00,WNW,289,2.0,6.0,37,0.00,,,-99.99,,2013-01-28 09:02:00,
2013-01-28 04:11:00,19.0,-3.0,-100.00,WNW,289,2.0,6.0,37,0.00,,,-99.99,,2013-01-28 09:11:00,
2013-01-28 04:30:00,17.0,-1.0,-100.00,WSW,243,2.0,4.0,45,0.00,,,-99.99,,2013-01-28 09:30:00,
2013-01-28 04:42:00,17.0,-2.0,-100.00,WSW,250,2.0,6.0,41,0.00,,,-99.99,,2013-01-28 09:42:00,
2013-01-28 04:52:00,17.0,-1.0,-100.00,WSW,243,2.0,4.0,45,0.00,,,-99.99,,2013-01-28 09:52:00,
2013-01-28 05:02:00,17.0,-1.0,-100.00,WSW,243,2.0,4.0,45,0.00,,,-99.99,,2013-01-28 10:02:00,
2013-01-28 05:11:00,17.0,-1.0,-100.00,WSW,243,2.0,4.0,45,0.00,,,-99.99,,2013-01-28 10:11:00,
2013-01-28 05:21:00,17.0,-1.0,-100.00,WSW,243,2.0,4.0,45,0.00,,,-99.99,,2013-01-28 10:21:00,
2013-01-28 07:23:00,14.0,0.0,-100.00,South,189,1.0,4.0,52,0.00,,,-99.99,,2013-01-28 12:23:00,
2013-01-28 07:33:00,15.0,1.0,-100.00,SW,217,1.0,2.0,53,0.00,,,-99.99,,2013-01-28 12:33:00,
2013-01-28 07:42:00,15.0,2.0,-100.00,SW,216,2.0,4.0,58,0.00,,,-99.99,,2013-01-28 12:42:00,
2013-01-28 07:52:00,16.0,-1.0,-100.00,SW,217,1.0,4.0,46,0.00,,,-99.99,,2013-01-28 12:52:00,
2013-01-28 08:03:00,17.0,-2.0,-100.00,SSE,162,1.0,3.0,43,0.00,,,-99.99,,2013-01-28 13:03:00,
2013-01-28 08:12:00,18.0,-3.0,-100.00,SE,127,1.0,4.0,39,0.00,,,-99.99,,2013-01-28 13:12:00,
2013-01-28 08:23:00,18.0,-2.0,-100.00,SSE,161,1.0,4.0,39,0.00,,,-99.99,,2013-01-28 13:23:00,
2013-01-28 08:33:00,19.0,-2.0,-100.00,SSW,200,0.0,2.0,39,0.00,,,-99.99,,2013-01-28 13:33:00,
2013-01-28 08:42:00,19.0,-2.0,-100.00,SSW,195,1.0,3.0,38,0.00,,,-99.99,,2013-01-28 13:42:00,
2013-01-28 08:52:00,20.0,1.0,-100.00,SSW,199,0.0,2.0,43,0.00,,,-99.99,,2013-01-28 13:52:00,
2013-01-28 09:03:00,20.0,1.0,-100.00,NW,312,1.0,4.0,44,0.00,,,-99.99,,2013-01-28 14:03:00,
2013-01-28 09:12:00,21.0,2.0,-100.00,West,278,0.0,1.0,44,0.00,,,-99.99,,2013-01-28 14:12:00,
2013-01-28 09:22:00,21.0,-3.0,-100.00,SW,224,1.0,3.0,33,0.00,,,-99.99,,2013-01-28 14:22:00,
2013-01-28 09:33:00,22.0,-1.0,-100.00,West,265,1.0,3.0,36,0.00,,,-99.99,,2013-01-28 14:33:00,
2013-01-28 09:43:00,22.0,-1.0,-100.00,WSW,258,1.0,2.0,36,0.00,,,-99.99,,2013-01-28 14:43:00,
2013-01-28 09:52:00,21.0,-3.0,-100.00,WNW,294,2.0,4.0,33,0.00,,,-99.99,,2013-01-28 14:52:00,
2013-01-28 10:03:00,22.0,-1.0,-100.00,WNW,291,2.0,5.0,37,0.00,,,-99.99,,2013-01-28 15:03:00,
2013-01-28 10:12:00,22.0,-1.0,-100.00,West,267,1.0,3.0,36,0.00,,,-99.99,,2013-01-28 15:12:00,
2013-01-28 10:23:00,22.0,1.0,-100.00,West,271,1.0,3.0,39,0.00,,,-99.99,,2013-01-28 15:23:00,
2013-01-28 10:33:00,22.0,-2.0,-100.00,WNW,301,2.0,4.0,34,0.00,,,-99.99,,2013-01-28 15:33:00,
2013-01-28 10:43:00,22.0,-2.0,-100.00,WNW,299,1.0,4.0,33,0.00,,,-99.99,,2013-01-28 15:43:00,
2013-01-28 10:52:00,22.0,-1.0,-100.00,WNW,295,2.0,4.0,35,0.00,,,-99.99,,2013-01-28 15:52:00,
2013-01-28 11:04:00,23.0,-1.0,-100.00,NW,308,2.0,5.0,35,0.00,,,-99.99,,2013-01-28 16:04:00,
2013-01-28 11:12:00,23.0,0.0,-100.00,NW,313,1.0,3.0,35,0.00,,,-99.99,,2013-01-28 16:12:00,
2013-01-28 11:22:00,23.0,0.0,-100.00,NNW,339,1.0,3.0,36,0.00,,,-99.99,,2013-01-28 16:22:00,
2013-01-28 11:32:00,23.0,-1.0,-100.00,NNW,332,2.0,4.0,34,0.00,,,-99.99,,2013-01-28 16:32:00,
2013-01-28 11:43:00,24.0,-5.0,-100.00,NNW,330,2.0,6.0,28,0.00,,,-99.99,,2013-01-28 16:43:00,
2013-01-28 11:52:00,24.0,-2.0,-100.00,NW,320,1.0,3.0,31,0.00,,,-99.99,,2013-01-28 16:52:00,
2013-01-28 12:02:00,24.0,-3.0,-100.00,WNW,285,1.0,3.0,30,0.00,,,-99.99,,2013-01-28 17:02:00,
2013-01-28 12:12:00,25.0,-2.0,-100.00,West,268,1.0,2.0,31,0.00,,,-99.99,,2013-01-28 17:12:00,
2013-01-28 12:23:00,25.0,-1.0,-100.00,West,268,0.0,2.0,31,0.00,,,-99.99,,2013-01-28 17:23:00,
2013-01-28 12:33:00,24.0,-2.0,-100.00,NNW,333,2.0,4.0,31,0.00,,,-99.99,,2013-01-28 17:33:00,
2013-01-28 12:42:00,25.0,0.0,-100.00,NNW,328,2.0,4.0,33,-99.99,,,-99.99,,2013-01-28 17:42:00,
2013-01-28 12:52:00,25.0,-2.0,-100.00,NW,320,2.0,3.0,30,0.00,,,-99.99,,2013-01-28 17:52:00,
2013-01-28 13:03:00,25.0,-2.0,-100.00,NW,318,1.0,3.0,30,0.00,,,-99.99,,2013-01-28 18:03:00,
2013-01-28 13:12:00,25.0,-1.0,-100.00,NW,318,0.0,2.0,30,0.00,,,-99.99,,2013-01-28 18:12:00,
2013-01-28 13:23:00,26.0,-2.0,-100.00,WSW,239,0.0,1.0,28,0.00,,,-99.99,,2013-01-28 18:23:00,
2013-01-28 13:33:00,27.0,-3.0,-100.00,South,184,1.0,3.0,27,0.00,,,-99.99,,2013-01-28 18:33:00,
2013-01-28 13:42:00,27.0,-3.0,-100.00,SSW,193,1.0,3.0,27,0.00,,,-99.99,,2013-01-28 18:42:00,
2013-01-28 13:52:00,27.0,1.0,-100.00,SSW,195,2.0,8.0,32,0.00,,,-99.99,,2013-01-28 18:52:00,
2013-01-28 14:02:00,26.0,6.0,-100.00,SSW,212,2.0,10.0,41,0.00,,,-99.99,,2013-01-28 19:02:00,
2013-01-28 14:12:00,26.0,10.0,-100.00,South,172,4.0,9.0,50,0.00,,,-99.99,,2013-01-28 19:12:00,
2013-01-28 14:22:00,26.0,9.0,-100.00,South,172,2.0,6.0,49,0.00,,,-99.99,,2013-01-28 19:22:00,
2013-01-28 14:33:00,26.0,10.0,-100.00,SSW,198,2.0,5.0,49,0.00,,,-99.99,,2013-01-28 19:33:00,
2013-01-28 14:42:00,26.0,12.0,-100.00,South,175,2.0,6.0,55,0.00,,,-99.99,,2013-01-28 19:42:00,
2013-01-28 14:52:00,26.0,13.0,-100.00,SSW,192,3.0,5.0,59,0.00,,,-99.99,,2013-01-28 19:52:00,
2013-01-28 15:03:00,25.0,13.0,-100.00,SSE,164,2.0,4.0,60,0.00,,,-99.99,,2013-01-28 20:03:00,
2013-01-28 15:12:00,25.0,14.0,-100.00,SE,138,1.0,3.0,63,0.00,,,-99.99,,2013-01-28 20:12:00,
2013-01-28 15:22:00,25.0,14.0,-100.00,ENE,78,1.0,3.0,64,0.00,,,-99.99,,2013-01-28 20:22:00,
2013-01-28 15:33:00,24.0,15.0,-100.00,East,82,1.0,6.0,67,0.03,,,-99.99,,2013-01-28 20:33:00,
2013-01-28 15:42:00,24.0,14.0,-100.00,NE,56,2.0,4.0,65,0.00,,,-99.99,,2013-01-28 20:42:00,
2013-01-28 15:53:00,24.0,-99.9,-100.00,ENE,66,2.0,5.0,-999,0.00,,,-99.99,,2013-01-28 20:53:00,
2013-01-28 16:03:00,23.0,16.0,-100.00,ENE,76,2.0,4.0,75,0.03,,,-99.99,,2013-01-28 21:03:00,
2013-01-28 16:12:00,22.0,17.0,-100.00,East,79,2.0,4.0,81,0.01,,,-99.99,,2013-01-28 21:12:00,
2013-01-28 16:22:00,22.0,18.0,-100.00,East,82,1.0,4.0,85,0.01,,,-99.99,,2013-01-28 21:22:00,
2013-01-28 16:33:00,22.0,19.0,-100.00,ENE,78,1.0,2.0,87,0.00,,,-99.99,,2013-01-28 21:33:00,
2013-01-28 16:43:00,22.0,19.0,-100.00,East,79,1.0,4.0,89,0.01,,,-99.99,,2013-01-28 21:43:00,
2013-01-28 16:52:00,22.0,20.0,-100.00,ENE,75,2.0,4.0,90,0.00,,,-99.99,,2013-01-28 21:52:00,
2013-01-28 17:02:00,22.0,20.0,-100.00,ENE,73,1.0,4.0,92,0.03,,,-99.99,,2013-01-28 22:02:00,
2013-01-28 17:12:00,22.0,20.0,-100.00,ENE,76,1.0,3.0,93,0.03,,,-99.99,,2013-01-28 22:12:00,
2013-01-28 17:23:00,22.0,21.0,-100.00,NE,37,1.0,2.0,94,0.01,,,-99.99,,2013-01-28 22:23:00,
2013-01-28 17:32:00,22.0,21.0,-100.00,NE,49,1.0,3.0,95,0.01,,,-99.99,,2013-01-28 22:32:00,
2013-01-28 17:42:00,22.0,21.0,-100.00,NE,42,1.0,5.0,95,0.01,,,-99.99,,2013-01-28 22:42:00,
2013-01-28 17:52:00,22.0,21.0,-100.00,NE,42,1.0,4.0,97,0.01,,,-99.99,,2013-01-28 22:52:00,
2013-01-28 18:02:00,22.0,21.0,-100.00,ENE,61,1.0,4.0,97,0.01,,,-99.99,,2013-01-28 23:02:00,
2013-01-28 18:12:00,22.0,21.0,-100.00,NE,48,0.0,2.0,98,0.00,,,-99.99,,2013-01-28 23:12:00,
2013-01-28 18:22:00,22.0,22.0,-100.00,NE,40,1.0,3.0,100,0.03,,,-99.99,,2013-01-28 23:22:00,
2013-01-28 18:32:00,22.0,22.0,-100.00,NNE,31,1.0,4.0,100,0.00,,,-99.99,,2013-01-28 23:32:00,
2013-01-28 18:42:00,22.0,22.0,-100.00,North,353,1.0,4.0,100,-99.99,,,-99.99,,2013-01-28 23:42:00,
2013-01-28 18:52:00,22.0,22.0,-100.00,North,353,1.0,3.0,100,0.00,,,-99.99,,2013-01-28 23:52:00,
2013-01-28 19:02:00,22.0,22.0,-100.00,NNW,329,0.0,2.0,100,0.00,,,-99.99,,2013-01-29 00:02:00,
2013-01-28 19:12:00,22.0,22.0,-100.00,NNW,336,0.0,0.0,100,0.00,,,-99.99,,2013-01-29 00:12:00,
2013-01-28 19:42:00,23.0,23.0,-100.00,NW,326,6.0,7.0,100,0.00,,,-99.99,,2013-01-29 00:42:00,
2013-01-28 19:52:00,23.0,23.0,-100.00,NW,323,6.0,7.0,100,0.00,,,-99.99,,2013-01-29 00:52:00,
2013-01-28 20:02:00,22.0,22.0,-100.00,NW,311,4.0,6.0,100,0.00,,,-99.99,,2013-01-29 01:02:00,
2013-01-28 20:12:00,22.0,22.0,-100.00,NW,315,2.0,4.0,100,0.00,,,-99.99,,2013-01-29 01:12:00,
2013-01-28 20:23:00,22.0,22.0,-100.00,NW,319,4.0,6.0,100,0.01,,,-99.99,,2013-01-29 01:23:00,
2013-01-28 20:32:00,22.0,-99.9,-100.00,NW,325,6.0,7.0,-999,0.03,,,-99.99,,2013-01-29 01:32:00,
2013-01-28 20:42:00,22.0,-99.9,-100.00,NW,326,5.0,7.0,-999,0.03,,,-99.99,,2013-01-29 01:42:00,
2013-01-28 20:53:00,22.0,-99.9,-100.00,NNW,328,4.0,6.0,-999,0.03,,,-99.99,,2013-01-29 01:53:00,
2013-01-28 21:02:00,22.0,-99.9,-100.00,NNW,329,4.0,6.0,-999,0.00,,,-99.99,,2013-01-29 02:02:00,
2013-01-28 21:12:00,22.0,-99.9,-100.00,NNW,328,4.0,7.0,-999,0.00,,,-99.99,,2013-01-29 02:12:00,
2013-01-28 21:22:00,22.0,-99.9,-100.00,NNW,328,6.0,7.0,-999,0.00,,,-99.99,,2013-01-29 02:22:00,
2013-01-28 21:33:00,22.0,-99.9,-100.00,NNW,330,4.0,7.0,-999,0.00,,,-99.99,,2013-01-29 02:33:00,
2013-01-28 21:42:00,22.0,-99.9,-100.00,NNW,329,6.0,7.0,-999,0.00,,,-99.99,,2013-01-29 02:42:00,
2013-01-28 21:53:00,22.0,-99.9,-100.00,NNW,329,6.0,7.0,-999,0.00,,,-99.99,,2013-01-29 02:53:00,
2013-01-28 22:03:00,22.0,-99.9,-100.00,NNW,329,6.0,7.0,-999,0.00,,,-99.99,,2013-01-29 03:03:00,
2013-01-28 22:12:00,22.0,-99.9,-100.00,NNW,328,5.0,7.0,-999,0.00,,,-99.99,,2013-01-29 03:12:00,
2013-01-28 22:22:00,22.0,-99.9,-100.00,NW,325,6.0,8.0,-999,0.00,,,-99.99,,2013-01-29 03:22:00,
2013-01-28 22:32:00,22.0,-99.9,-100.00,NNW,332,5.0,7.0,-999,0.00,,,-99.99,,2013-01-29 03:32:00,
2013-01-28 22:42:00,22.0,-99.9,-100.00,NNW,332,4.0,7.0,-999,0.00,,,-99.99,,2013-01-29 03:42:00,
2013-01-28 22:53:00,22.0,-99.9,-100.00,NNW,337,4.0,7.0,-999,0.00,,,-99.99,,2013-01-29 03:53:00,
2013-01-28 23:03:00,22.0,-99.9,-100.00,NNW,335,6.0,7.0,-999,0.01,,,-99.99,,2013-01-29 04:03:00,
2013-01-28 23:12:00,22.0,-99.9,-100.00,NNW,332,6.0,7.0,-999,0.01,,,-99.99,,2013-01-29 04:12:00,
2013-01-28 23:22:00,22.0,-99.9,-100.00,NNW,330,6.0,7.0,-999,0.01,,,-99.99,,2013-01-29 04:22:00,
2013-01-28 23:32:00,22.0,-99.9,-100.00,NNW,332,6.0,9.0,-999,0.00,,,-99.99,,2013-01-29 04:32:00,
2013-01-28 23:42:00,22.0,-99.9,-100.00,NNW,335,5.0,7.0,-999,0.00,,,-99.99,,2013-01-29 04:42:00,
2013-01-28 23:52:00,22.0,-99.9,-100.00,NNW,330,6.0,7.0,-999,0.00,,,-99.99,,2013-01-29 04:52:00,